Temp
-7 -7 -7 -7 -7 -7 -7 -7 -7 -8 -8 -7 -8 -8 -8 -9 -9 -9 -9 -10 -10 -10 -9 -9 -10 -10 -10 -10 -10 -10 -10 -9 -9 -9 -8 -8 -8 -8 -8 -8 -7 -7 -7
-7 -7 -7 -7 -7 -7 -7 -8 -8 -8 -8 -9 -8 -8 -8 -10 -10 -9 -9 -9 -9 -9 -9 -9 -10 -10 -10 -10 -11 -11 -10 -10 -9 -9 -9 -8 -8 -8 -8 -8 -8 -8 -8
-7 -7 -7 -7 -7 -7 -7 -8 -8 -8 -8 -9 -9 -9 -9 -10 -8 -8 -10 -9 -10 -10 -10 -9 -10 -10 -10 -10 -10 -11 -11 -11 -10 -10 -10 -10 -9 -9 -8 -8 -8 -8 -9
-7 -7 -7 -8 -7 -8 -8 -8 -9 -9 -9 -9 -9 -9 -9 -9 -9 -9 -8 -9 -9 -10 -10 -9 -9 -10 -10 -9 -10 -10 -10 -11 -10 -10 -9 -9 -9 -10 -10 -9 -9 -9 -10
-7 -7 -7 -7 -8 -8 -9 -9 -9 -9 -9 -9 -9 -9 -9 -9 -9 -9 -8 -9 -10 -9 -9 -9 -10 -10 -10 -10 -9 -10 -9 -10 -10 -10 -10 -10 -10 -10 -10 -10 -10 -10 -11
-7 -7 -7 -8 -8 -8 -8 -9 -9 -9 -10 -9 -9 -10 -9 -9 -9 -9 -9 -9 -10 -10 -9 -9 -10 -9 -9 -10 -10 -10 -10 -10 -10 -10 -10 -11 -11 -11 -11 -11 -11 -11 -12
-7 -7 -8 -8 -8 -8 -9 -9 -9 -10 -9 -10 -10 -9 -9 -10 -10 -9 -9 -10 -10 -9 -9 -10 -9 -10 -9 -9 -9 -10 -11 -11 -11 -11 -11 -12 -12 -13 -13 -12 -13 -13 -14
-7 -7 -8 -8 -8 -9 -9 -9 -9 -9 -10 -10 -10 -10 -10 -10 -10 -9 -10 -11 -10 -10 -10 -10 -10 -10 -10 -10 -10 -11 -11 -11 -12 -12 -13 -13 -13 -13 -13 -12 -14 -14 -14
-7 -8 -8 -8 -8 -9 -9 -9 -9 -9 -10 -10 -10 -10 -10 -10 -10 -10 -10 -10 -10 -10 -11 -11 -11 -11 -11 -11 -11 -11 -12 -12 -12 -13 -13 -13 -14 -14 -13 -13 -14 -14 -14
-8 -8 -8 -8 -8 -9 -9 -9 -9 -9 -9 -10 -10 -10 -10 -10 -10 -10 -10 -10 -10 -10 -10 -11 -11 -11 -11 -11 -12 -12 -12 -13 -13 -14 -14 -14 -14 -14 -14 -14 -15 -14 -14
-8 -8 -8 -9 -9 -9 -9 -9 -9 -9 -9 -9 -10 -9 -10 -10 -10 -11 -10 -10 -10 -11 -11 -11 -11 -11 -12 -12 -12 -12 -13 -13 -13 -14 -14 -15 -15 -14 -14 -14 -14 -14 -14
-8 -8 -9 -10 -9 -9 -9 -10 -10 -9 -9 -10 -10 -10 -10 -10 -10 -11 -10 -11 -11 -11 -11 -12 -12 -12 -12 -12 -13 -13 -13 -14 -14 -15 -15 -15 -15 -15 -15 -15 -15 -15 -15
-8 -9 -10 -10 -9 -9 -10 -9 -9 -9 -9 -10 -10 -10 -10 -10 -10 -11 -11 -11 -12 -12 -12 -12 -12 -12 -13 -13 -14 -14 -14 -14 -15 -15 -15 -15 -15 -15 -16 -16 -15 -15 -15
-9 -9 -10 -10 -9 -9 -9 -10 -9 -9 -9 -9 -10 -10 -10 -10 -11 -11 -11 -11 -12 -12 -13 -12 -12 -12 -13 -14 -14 -14 -15 -15 -15 -15 -15 -16 -16 -16 -16 -16 -16 -16 -16
-9 -9 -9 -9 -9 -9 -9 -10 -10 -9 -9 -10 -10 -10 -10 -10 -11 -11 -11 -12 -12 -12 -13 -13 -13 -14 -14 -15 -15 -15 -15 -16 -16 -16 -16 -16 -16 -16 -16 -16 -16 -16 -16
-10 -9 -9 -10 -9 -10 -10 -10 -10 -10 -10 -10 -10 -10 -10 -10 -11 -11 -12 -13 -13 -13 -14 -14 -14 -14 -15 -15 -15 -15 -15 -16 -16 -16 -16 -16 -17 -17 -17 -16 -16 -16 -16
-10 -10 -10 -10 -10 -10 -11 -10 -11 -11 -10 -10 -11 -11 -11 -11 -12 -13 -13 -13 -14 -14 -14 -15 -15 -15 -15 -16 -16 -16 -16 -16 -17 -17 -17 -17 -17 -17 -17 -16 -16 -17 -17
-10 -9 -10 -10 -11 -11 -11 -11 -11 -11 -11 -11 -11 -11 -12 -13 -14 -14 -14 -14 -15 -15 -16 -16 -15 -15 -15 -16 -16 -16 -17 -17 -17 -17 -17 -17 -17 -17 -17 -17 -17 -17 -17
-10 -10 -10 -11 -11 -11 -11 -11 -11 -11 -11 -12 -12 -13 -13 -14 -14 -14 -15 -16 -16 -16 -16 -16 -16 -16 -16 -16 -17 -17 -17 -17 -17 -18 -18 -17 -17 -17 -17 -17 -17 -17 -17
-10 -10 -10 -10 -11 -11 -11 -11 -11 -11 -11 -11 -13 -14 -14 -14 -15 -15 -16 -16 -16 -16 -16 -16 -16 -16 -16 -17 -17 -18 -18 -18 -18 -18 -18 -18 -18 -18 -18 -18 -17 -17 -17
-11 -11 -11 -11 -11 -11 -11 -11 -12 -12 -12 -12 -12 -13 -16 -15 -15 -15 -16 -16 -16 -16 -16 -16 -16 -16 -16 -17 -18 -18 -18 -18 -18 -18 -18 -18 -18 -18 -18 -18 -18 -17 -17
-11 -11 -11 -11 -11 -12 -12 -12 -12 -13 -13 -13 -13 -14 -15 -15 -15 -15 -16 -16 -16 -16 -16 -16 -16 -16 -17 -17 -18 -18 -18 -18 -18 -18 -18 -18 -18 -18 -18 -18 -18 -17 -17
-11 -11 -12 -12 -12 -12 -12 -13 -13 -13 -14 -13 -14 -14 -15 -15 -15 -15 -16 -16 -16 -16 -16 -16 -16 -16 -16 -17 -17 -18 -18 -18 -18 -18 -19 -19 -18 -18 -18 -18 -18 -18 -17
-12 -12 -12 -13 -13 -13 -13 -13 -14 -14 -14 -14 -14 -15 -15 -16 -16 -16 -16 -16 -16 -16 -16 -16 -16 -16 -16 -17 -17 -17 -18 -18 -18 -18 -18 -19 -18 -19 -19 -19 -19 -18 -18
-13 -13 -13 -13 -13 -14 -13 -14 -14 -14 -14 -15 -15 -16 -16 -16 -16 -16 -16 -16 -16 -16 -16 -16 -16 -16 -17 -17 -17 -17 -17 -18 -18 -18 -18 -19 -19 -19 -19 -19 -19 -19 -18
-13 -13 -13 -13 -14 -14 -14 -14 -15 -15 -15 -16 -16 -16 -16 -16 -16 -16 -16 -16 -16 -16 -16 -16 -16 -17 -17 -17 -17 -17 -17 -18 -18 -19 -19 -19 -19 -19 -19 -19 -19 -19 -19
Height
5888 5890 5892 5893 5893 5894 5896 5895 5893 5893 5892 5891 5887 5885 5881 5877 5871 5865 5858 5858 5859 5858 5857 5857 5856 5854 5851 5850 5849 5848 5847 5845 5841 5837 5835 5831 5830 5827 5825 5823 5821 5819 5817
5885 5887 5889 5890 5890 5890 5892 5891 5889 5889 5887 5885 5882 5878 5874 5870 5865 5859 5853 5850 5852 5850 5849 5848 5848 5848 5844 5841 5839 5837 5836 5836 5834 5831 5826 5824 5821 5819 5815 5812 5810 5807 5805
5884 5885 5886 5886 5887 5887 5888 5888 5885 5884 5881 5879 5876 5874 5869 5865 5862 5856 5853 5847 5845 5842 5840 5841 5840 5839 5835 5832 5829 5828 5825 5824 5822 5821 5821 5817 5813 5809 5805 5801 5800 5797 5792
5881 5882 5882 5882 5883 5883 5882 5881 5880 5878 5878 5874 5872 5868 5864 5861 5855 5851 5848 5844 5837 5833 5833 5832 5831 5828 5826 5823 5821 5819 5817 5814 5812 5809 5807 5803 5799 5796 5792 5790 5786 5782 5780
5875 5876 5877 5878 5878 5877 5876 5876 5875 5873 5870 5867 5865 5861 5858 5854 5850 5845 5841 5836 5832 5829 5826 5824 5821 5818 5816 5814 5811 5810 5808 5807 5803 5800 5797 5794 5788 5783 5779 5774 5772 5769 5765
5870 5871 5872 5873 5873 5872 5871 5870 5869 5866 5864 5861 5858 5855 5851 5846 5842 5837 5833 5828 5826 5822 5819 5817 5814 5811 5810 5809 5805 5802 5800 5797 5794 5790 5786 5782 5777 5771 5766 5761 5758 5756 5751
5864 5865 5866 5868 5868 5867 5866 5864 5862 5859 5857 5854 5850 5847 5843 5838 5834 5829 5824 5820 5817 5814 5812 5809 5807 5805 5804 5800 5797 5794 5789 5785 5783 5778 5775 5771 5764 5760 5753 5749 5744 5741 5738
5859 5860 5862 5861 5861 5860 5859 5857 5854 5853 5850 5847 5841 5837 5833 5828 5823 5818 5813 5811 5810 5807 5803 5800 5798 5796 5792 5790 5787 5783 5778 5775 5770 5767 5762 5757 5751 5746 5740 5736 5733 5729 5726
5853 5855 5855 5854 5854 5853 5852 5849 5847 5845 5842 5837 5834 5828 5822 5818 5811 5808 5806 5805 5800 5797 5795 5793 5790 5787 5785 5779 5775 5772 5766 5762 5757 5753 5749 5744 5739 5734 5727 5723 5720 5716 5713
5845 5847 5846 5846 5846 5845 5843 5841 5840 5837 5833 5829 5824 5819 5813 5809 5804 5802 5799 5796 5793 5790 5788 5783 5778 5775 5773 5768 5762 5757 5752 5748 5744 5738 5735 5730 5727 5722 5716 5713 5709 5705 5700
5836 5837 5837 5837 5837 5836 5835 5833 5830 5826 5822 5818 5814 5809 5803 5799 5795 5792 5788 5785 5782 5780 5777 5773 5770 5764 5760 5756 5751 5746 5741 5736 5732 5727 5722 5717 5713 5708 5705 5701 5698 5693 5690
5827 5827 5828 5827 5828 5827 5825 5823 5819 5815 5810 5806 5802 5798 5794 5789 5784 5781 5777 5774 5771 5767 5763 5760 5756 5753 5747 5743 5739 5734 5729 5725 5720 5715 5710 5705 5702 5698 5694 5691 5687 5683 5679
5818 5817 5815 5816 5817 5815 5812 5810 5807 5803 5798 5794 5791 5787 5783 5778 5773 5770 5766 5763 5759 5755 5751 5747 5744 5739 5735 5731 5726 5721 5716 5712 5708 5703 5698 5694 5690 5687 5684 5681 5677 5674 5671
5808 5807 5807 5806 5804 5802 5800 5798 5795 5791 5786 5782 5779 5775 5771 5767 5764 5760 5755 5749 5746 5743 5741 5735 5731 5728 5723 5719 5714 5709 5704 5701 5696 5692 5687 5684 5680 5677 5674 5670 5668 5665 5661
5798 5797 5796 5794 5792 5790 5788 5785 5782 5778 5773 5770 5767 5764 5760 5756 5752 5748 5743 5739 5734 5730 5726 5723 5720 5715 5711 5707 5702 5698 5695 5690 5686 5682 5678 5674 5671 5668 5664 5661 5658 5655 5652
5784 5784 5784 5781 5779 5777 5774 5771 5767 5764 5762 5759 5754 5752 5747 5743 5737 5733 5729 5725 5722 5718 5715 5711 5707 5702 5698 5695 5691 5687 5685 5681 5677 5673 5669 5665 5661 5658 5655 5652 5649 5646 5643
5772 5773 5771 5769 5767 5765 5761 5758 5754 5752 5749 5745 5741 5737 5733 5729 5725 5721 5717 5714 5711 5707 5704 5700 5696 5693 5688 5684 5680 5678 5675 5671 5668 5664 5660 5656 5653 5650 5647 5644 5642 5638 5635
5760 5759 5757 5754 5752 5749 5747 5744 5741 5738 5735 5732 5728 5724 5720 5717 5713 5710 5706 5703 5700 5696 5693 5690 5686 5683 5680 5676 5672 5668 5665 5661 5658 5655 5651 5647 5644 5642 5640 5637 5634 5631 5628
5747 5744 5743 5741 5738 5736 5734 5732 5727 5726 5722 5720 5715 5711 5709 5705 5701 5698 5695 5692 5689 5686 5684 5682 5679 5675 5671 5667 5663 5660 5656 5653 5649 5646 5643 5640 5637 5635 5633 5631 5628 5625 5622
5732 5731 5729 5728 5726 5724 5722 5719 5716 5711 5711 5709 5703 5699 5697 5693 5691 5688 5686 5684 5681 5679 5677 5674 5671 5666 5662 5658 5655 5652 5649 5646 5643 5640 5637 5634 5631 5629 5627 5625 5622 5619 5617
5719 5719 5717 5716 5715 5713 5710 5707 5703 5697 5695 5695 5692 5692 5685 5682 5680 5679 5678 5675 5673 5672 5670 5666 5663 5659 5656 5652 5648 5645 5643 5640 5636 5633 5631 5628 5625 5623 5621 5619 5616 5613 5611
5706 5707 5705 5703 5701 5700 5699 5696 5692 5688 5684 5683 5680 5677 5675 5673 5672 5672 5670 5669 5667 5666 5663 5660 5657 5654 5650 5646 5642 5640 5637 5633 5630 5627 5625 5622 5619 5617 5614 5612 5610 5608 5605
5693 5694 5692 5691 5690 5689 5687 5685 5682 5679 5676 5675 5673 5672 5669 5668 5666 5665 5664 5663 5661 5659 5657 5654 5651 5647 5644 5640 5637 5633 5630 5627 5624 5621 5619 5616 5613 5610 5607 5605 5603 5601 5599
5683 5682 5681 5682 5680 5678 5676 5675 5673 5672 5669 5667 5667 5665 5663 5662 5660 5659 5657 5657 5655 5654 5651 5648 5645 5642 5640 5636 5632 5628 5625 5622 5619 5616 5613 5610 5607 5604 5602 5599 5597 5595 5593
5674 5673 5672 5671 5671 5668 5666 5666 5666 5664 5662 5660 5659 5657 5656 5656 5655 5653 5652 5651 5650 5648 5645 5642 5640 5637 5634 5631 5627 5624 5620 5617 5614 5611 5609 5606 5603 5600 5598 5596 5593 5591 5589
5663 5663 5662 5662 5660 5659 5658 5658 5657 5655 5654 5652 5650 5649 5648 5647 5646 5646 5646 5645 5644 5642 5639 5637 5635 5633 5630 5626 5623 5620 5616 5613 5610 5607 5604 5602 5600 5597 5595 5592 5590 5588 5585
Wind_Speed
14 14 13 14 13 14 10 11 16 17 20 20 27 28 28 37 48 45 43 39 33 34 31 29 27 28 31 28 31 33 35 32 32 38 39 37 37 37 38 40 38 41 43
17 15 15 15 14 14 14 17 23 21 22 25 28 30 33 42 29 36 28 24 33 32 40 33 35 37 33 34 31 31 36 38 40 33 34 36 37 40 42 44 42 45 49
17 17 18 17 18 19 22 22 21 24 29 31 35 34 30 25 29 35 35 29 26 38 40 38 38 35 36 36 35 37 38 35 32 32 26 35 40 41 44 46 45 48 54
22 22 19 19 21 23 23 21 24 29 28 33 36 35 29 26 26 33 34 34 31 25 31 36 38 37 33 31 31 34 33 31 35 39 44 48 47 45 46 49 49 52 56
25 21 22 23 22 19 22 24 27 31 36 36 38 37 34 31 33 35 36 37 33 28 25 33 35 27 25 28 29 31 35 38 43 46 52 46 46 48 54 55 52 56 50
25 25 25 21 23 23 24 28 31 36 39 43 43 42 38 36 37 39 39 37 31 29 29 30 35 31 31 27 29 32 36 40 46 48 51 50 55 57 55 55 54 53 48
27 25 26 25 25 24 27 31 35 39 41 41 42 41 42 45 40 40 37 37 26 24 28 36 27 28 34 38 37 35 37 43 45 48 51 51 53 55 54 50 49 49 45
26 26 25 25 27 29 32 36 39 43 49 44 46 46 42 41 42 40 38 39 30 32 30 33 32 33 35 37 39 42 42 46 48 50 52 52 53 54 51 50 46 46 41
28 29 24 26 31 33 36 41 44 47 53 55 55 48 44 43 41 42 36 32 35 34 32 34 33 36 39 42 46 48 50 50 52 51 51 49 51 51 50 49 45 43 41
35 33 36 36 38 39 41 44 47 51 53 56 56 48 45 41 41 34 36 38 34 32 35 41 44 41 42 41 45 46 49 50 52 53 51 51 50 48 45 42 41 42 40
38 41 40 40 42 43 47 50 54 56 57 59 60 50 47 46 39 34 37 39 37 37 41 44 46 42 43 44 47 48 50 52 53 54 54 53 50 48 45 44 43 41 39
44 47 45 46 40 47 45 49 54 56 57 59 58 54 47 41 39 39 40 40 41 43 45 46 48 46 44 42 46 48 50 51 53 54 52 48 44 41 39 40 39 39 41
48 51 55 43 42 46 46 49 51 54 56 57 54 55 48 46 43 40 41 41 43 41 43 43 46 45 46 48 52 52 52 51 50 47 43 41 40 39 38 37 36 37 37
51 55 50 45 44 46 49 53 53 54 55 57 56 54 52 48 48 49 46 44 43 43 42 41 45 53 53 52 52 49 47 44 45 43 41 41 40 38 36 34 35 36 35
51 47 47 47 46 51 54 55 54 53 53 50 51 52 55 54 49 47 44 45 46 44 42 42 48 53 51 49 45 43 42 41 41 40 40 41 37 36 35 34 36 36 34
47 48 48 52 53 54 57 58 58 57 59 57 55 54 53 52 48 50 47 43 41 41 44 47 51 50 50 47 47 41 38 36 37 41 41 37 35 34 34 34 36 35 33
46 51 54 57 59 58 60 59 56 56 58 54 52 52 51 51 49 42 40 41 41 43 46 47 46 45 45 43 39 35 37 37 37 36 36 36 35 35 34 33 32 32 30
46 52 54 58 60 62 61 61 59 55 51 50 49 49 47 42 42 43 42 41 41 43 43 42 41 36 33 32 33 34 32 33 35 35 35 34 33 32 29 29 29 27 27
48 50 51 56 57 56 57 59 56 52 48 48 46 42 42 42 43 41 39 38 38 38 38 35 31 32 33 33 34 34 33 32 32 31 30 28 26 26 26 26 25 24 24
48 50 53 53 52 51 51 50 50 50 48 44 42 43 42 40 36 36 31 32 34 32 28 29 31 32 31 30 30 30 30 29 28 28 28 27 25 26 26 26 26 25 25
51 52 50 49 49 45 46 47 43 40 42 41 41 33 32 36 35 32 34 32 29 27 27 27 26 26 26 26 26 25 25 26 27 27 26 25 25 25 26 27 27 27 26
46 44 44 44 42 39 39 40 38 36 37 37 33 30 29 28 25 24 25 24 25 25 25 24 25 25 26 26 26 25 26 26 26 26 25 25 26 27 28 28 27 26 27
39 39 40 35 36 37 38 37 33 31 31 26 20 20 22 23 23 22 22 23 22 23 24 24 24 24 24 26 26 26 26 26 25 25 25 25 25 25 26 26 26 26 26
37 35 36 34 33 32 32 29 28 28 28 26 23 24 24 22 24 23 21 19 21 20 21 22 23 25 27 27 26 26 26 24 23 23 21 21 22 22 21 21 21 21 22
34 33 32 31 28 28 27 26 29 29 29 28 26 27 26 24 22 19 18 19 18 19 19 21 22 23 25 24 24 24 25 24 24 23 22 20 20 20 20 19 19 18 18
32 31 31 29 28 29 31 32 32 30 29 28 28 26 25 23 20 18 20 19 19 19 20 21 22 23 23 24 24 23 24 25 25 23 21 19 17 16 15 15 16 16 16
Wind_Direction
215 220 224 236 261 277 290 319 320 328 325 328 333 328 326 311 323 311 288 270 268 272 274 273 276 285 282 286 285 279 277 277 284 287 287 288 287 286 285 286 280 283 287
219 213 230 251 263 275 291 314 318 324 326 338 337 332 337 332 348 354 340 302 275 261 265 270 274 287 289 287 291 280 270 270 276 277 283 283 287 287 282 276 282 287 287
235 234 246 250 266 287 299 308 316 325 332 333 334 336 334 340 334 334 332 322 290 261 265 267 277 282 290 287 286 290 281 286 277 277 282 290 292 287 281 276 279 284 288
253 253 258 266 284 294 303 314 324 325 326 328 335 332 325 324 314 326 325 320 309 296 278 277 284 283 282 282 284 287 282 283 280 283 288 292 292 289 287 282 280 286 291
262 276 287 290 289 296 304 310 315 318 319 321 322 324 321 317 316 315 314 321 304 286 286 290 283 275 274 278 275 272 266 273 277 283 287 288 289 291 291 288 287 289 294
271 283 288 280 283 296 307 313 315 315 316 315 317 317 312 310 310 310 309 315 298 281 281 295 280 278 272 274 274 280 277 277 277 280 284 288 290 289 289 289 289 296 294
275 276 277 279 285 292 299 301 305 305 303 312 313 312 308 308 305 306 304 311 299 280 285 285 284 286 289 292 286 276 280 283 289 287 284 289 289 290 290 291 296 294 295
269 270 271 289 292 296 298 299 299 304 305 307 316 311 304 304 305 307 305 308 290 289 279 280 285 289 292 292 283 282 284 285 291 286 288 289 290 292 294 295 296 297 299
266 262 270 284 288 293 296 298 301 305 303 314 312 307 305 306 308 308 297 299 295 289 276 281 290 297 293 286 285 283 285 288 285 285 287 289 292 294 294 297 298 301 303
269 273 275 281 289 291 293 299 303 307 307 307 306 301 302 304 300 294 300 298 302 295 287 293 294 300 295 287 281 283 286 286 285 287 289 291 296 298 298 297 298 300 303
269 274 274 277 283 288 292 295 300 302 304 303 306 300 307 301 296 289 294 293 298 292 289 293 294 296 291 285 283 288 287 285 285 290 295 299 299 298 296 296 297 300 302
269 269 269 267 280 284 290 294 295 297 299 300 301 303 302 298 295 297 294 293 293 295 294 296 294 296 289 289 290 289 287 287 291 294 298 298 297 295 296 297 299 303 303
261 261 265 278 280 289 292 293 293 291 294 296 301 300 297 299 299 294 294 294 293 291 291 291 282 282 283 288 292 290 289 288 296 298 298 296 295 296 298 299 301 302 299
261 263 275 287 286 288 287 291 295 295 294 294 296 294 296 299 302 303 303 301 296 293 282 288 276 285 287 292 292 293 295 294 295 295 296 296 296 296 297 297 300 301 300
264 272 277 283 286 284 287 288 291 291 294 295 295 297 300 301 301 300 301 299 296 293 288 284 282 287 290 292 294 295 297 296 297 296 295 294 295 296 296 297 300 301 299
266 270 279 277 282 285 285 284 287 288 292 294 296 298 298 299 298 299 300 295 291 287 285 286 288 290 292 292 294 295 297 294 292 290 291 293 294 294 294 297 298 298 298
265 276 275 278 280 283 288 288 290 291 293 295 295 296 297 297 297 295 293 291 288 284 288 287 288 291 292 294 294 294 293 295 293 292 291 291 291 291 293 295 295 296 299
268 271 276 280 282 284 286 285 285 291 292 293 292 293 295 295 296 295 291 288 285 285 284 289 291 295 297 296 294 295 296 297 296 294 293 293 292 291 293 295 297 299 299
260 269 272 277 281 283 284 286 287 288 289 291 293 296 296 297 299 295 290 287 288 290 290 291 292 296 300 301 300 298 297 296 295 295 297 296 293 292 293 295 298 299 301
262 267 272 274 280 283 285 288 287 289 292 294 298 297 297 296 295 294 287 289 290 296 297 295 300 304 307 306 303 299 296 293 294 295 296 296 294 293 293 293 295 297 299
267 275 277 281 283 285 286 286 288 293 295 297 296 298 290 292 291 289 289 289 295 298 299 303 309 311 313 312 309 304 299 298 299 299 297 296 296 296 295 294 293 294 295
273 275 277 277 280 283 286 288 293 295 297 296 298 296 294 294 295 292 292 292 294 297 306 307 309 313 315 315 311 309 306 305 303 302 301 300 298 297 294 292 290 291 292
272 272 273 277 279 285 286 288 292 292 292 295 298 293 289 291 293 295 292 291 298 305 305 306 311 315 320 321 316 312 309 309 308 305 301 301 301 300 297 293 289 286 286
267 269 275 278 282 283 283 288 286 286 284 287 284 286 288 291 293 293 292 300 303 304 309 314 315 312 315 316 322 321 315 312 310 313 311 308 306 306 306 303 299 292 285
269 272 274 274 276 279 282 280 279 277 278 281 283 288 290 288 281 279 289 296 299 307 314 318 320 320 320 320 319 321 320 314 310 311 312 310 308 306 304 303 305 303 295
267 269 269 270 274 276 277 277 276 274 276 280 281 281 283 283 277 279 287 289 295 306 313 316 320 323 319 320 322 323 323 322 317 310 308 309 307 308 313 317 312 304 299